• In Czech Republic
  • List of Countries
  • For 7 days
  • Water Temperature
  • Satellite Maps
  • Weather Map
  • Weather Widgets
  • user-avatar
    Login

    Hourly Weather Thunder Bay

    Today, 17 October, Tuesday

    Time Temperature Precipitation Wind Pressure Humidity
    00:00 +9°C° 0 mm 5 mps 732 mmHg 73%
    01:00 +8°C° 0 mm 5 mps 732 mmHg 74%
    02:00 +8°C° 0 mm 4 mps 732 mmHg 75%
    03:00 +8°C° 0 mm 4 mps 732 mmHg 77%
    04:00 +7°C° 0 mm 4 mps 733 mmHg 78%
    05:00 +7°C° 0 mm 4 mps 733 mmHg 80%
    06:00 +6°C° 0 mm 4 mps 734 mmHg 81%
    07:00 +8°C° 0 mm 3 mps 734 mmHg 75%
    08:00 +9°C° 0 mm 3 mps 735 mmHg 70%
    09:00 +11°C° 0 mm 3 mps 735 mmHg 64%
    10:00 +12°C° 0 mm 3 mps 735 mmHg 57%
    11:00 +13°C° 0 mm 3 mps 735 mmHg 51%
    12:00 +16°C° 0 mm 3 mps 735 mmHg 45%
    13:00 +16°C° 0 mm 3 mps 735 mmHg 46%
    14:00 +17°C° 0 mm 3 mps 735 mmHg 47%
    15:00 +17°C° 0 mm 3 mps 734 mmHg 48%
    16:00 +14°C° 0 mm 3 mps 734 mmHg 56%
    17:00 +13°C° 0 mm 3 mps 734 mmHg 64%
    18:00 +11°C° 0 mm 3 mps 734 mmHg 72%
    19:00 +11°C° 0 mm 3 mps 733 mmHg 73%
    20:00 +11°C° 0 mm 3 mps 733 mmHg 74%
    21:00 +11°C° 0 mm 3 mps 733 mmHg 75%
    22:00 +11°C° 0 mm 4 mps 733 mmHg 77%
    23:00 +11°C° 0 mm 4 mps 732 mmHg 79%

    Tomorrow, 18 October, Wednesday

    Time Temperature Precipitation Wind Pressure Humidity
    00:00 +11°C° 0 mm 4 mps 732 mmHg 81%
    01:00 +11°C° 0 mm 4 mps 731 mmHg 80%
    02:00 +10°C° 0 mm 5 mps 731 mmHg 78%
    03:00 +10°C° 0 mm 5 mps 731 mmHg 77%
    04:00 +10°C° 0 mm 5 mps 730 mmHg 75%
    05:00 +10°C° 0 mm 5 mps 730 mmHg 73%
    06:00 +10°C° 0 mm 5 mps 730 mmHg 70%
    07:00 +11°C° 0 mm 6 mps 729 mmHg 65%
    08:00 +14°C° 0 mm 7 mps 729 mmHg 60%
    09:00 +15°C° 0 mm 7 mps 729 mmHg 55%
    10:00 +16°C° 0 mm 7 mps 728 mmHg 54%
    11:00 +16°C° 0 mm 7 mps 728 mmHg 52%
    12:00 +17°C° 0 mm 8 mps 728 mmHg 50%
    13:00 +17°C° 0 mm 8 mps 727 mmHg 51%
    14:00 +17°C° 0 mm 7 mps 727 mmHg 51%
    15:00 +17°C° 0 mm 7 mps 726 mmHg 52%
    16:00 +15°C° 0 mm 7 mps 727 mmHg 51%
    17:00 +14°C° 0 mm 6 mps 728 mmHg 50%
    18:00 +13°C° 0 mm 6 mps 728 mmHg 49%
    19:00 +12°C° 0 mm 5 mps 729 mmHg 46%
    20:00 +10°C° 0 mm 5 mps 729 mmHg 44%
    21:00 +9°C° 0 mm 5 mps 730 mmHg 41%
    22:00 +8°C° 0 mm 5 mps 730 mmHg 40%
    23:00 +8°C° 0 mm 5 mps 730 mmHg 40%

    Day after tomorrow, 19 October, Thursday

    Time Temperature Precipitation Wind Pressure Humidity
    00:00 +7°C° 0 mm 6 mps 731 mmHg 39%
    01:00 +7°C° 0 mm 6 mps 731 mmHg 40%
    02:00 +7°C° 0 mm 6 mps 731 mmHg 41%
    03:00 +7°C° 0 mm 6 mps 732 mmHg 42%
    04:00 +5°C° 0 mm 6 mps 732 mmHg 45%
    05:00 +5°C° 0 mm 6 mps 733 mmHg 48%
    06:00 +5°C° 0 mm 6 mps 733 mmHg 51%
    07:00 +5°C° 0 mm 6 mps 734 mmHg 50%
    08:00 +7°C° 0 mm 6 mps 735 mmHg 50%
    09:00 +6°C° 0 mm 7 mps 736 mmHg 50%
    10:00 +8°C° 0 mm 6 mps 736 mmHg 47%
    11:00 +9°C° 0 mm 6 mps 737 mmHg 45%
    12:00 +10°C° 0 mm 5 mps 737 mmHg 43%
    13:00 +12°C° 0 mm 5 mps 737 mmHg 42%
    14:00 +12°C° 0 mm 4 mps 737 mmHg 41%
    15:00 +13°C° 0 mm 4 mps 737 mmHg 40%
    16:00 +11°C° 0 mm 3 mps 738 mmHg 44%
    17:00 +10°C° 0 mm 3 mps 738 mmHg 48%
    18:00 +9°C° 0 mm 2 mps 738 mmHg 52%
    19:00 +9°C° 0 mm 2 mps 738 mmHg 53%
    20:00 +8°C° 0 mm 2 mps 738 mmHg 54%
    21:00 +8°C° 0 mm 2 mps 738 mmHg 54%
    22:00 +8°C° 0 mm 2 mps 738 mmHg 56%
    23:00 +8°C° 0 mm 3 mps 738 mmHg 59%

    20 October, Friday

    Time Temperature Precipitation Wind Pressure Humidity
    00:00 +8°C° 0 mm 3 mps 738 mmHg 61%
    01:00 +9°C° 0 mm 3 mps 738 mmHg 63%
    02:00 +9°C° 0 mm 3 mps 737 mmHg 66%
    03:00 +8°C° 0 mm 4 mps 737 mmHg 69%
    04:00 +8°C° 0 mm 4 mps 737 mmHg 68%
    05:00 +8°C° 0 mm 4 mps 736 mmHg 67%
    06:00 +8°C° 0 mm 4 mps 736 mmHg 67%
    07:00 +9°C° 0 mm 5 mps 736 mmHg 63%
    08:00 +12°C° 0 mm 5 mps 736 mmHg 59%
    09:00 +13°C° 0 mm 6 mps 736 mmHg 55%
    10:00 +14°C° 0 mm 6 mps 735 mmHg 56%
    11:00 +15°C° 0 mm 6 mps 735 mmHg 56%
    12:00 +17°C° 0 mm 6 mps 734 mmHg 56%
    13:00 +17°C° 0 mm 5 mps 734 mmHg 57%
    14:00 +17°C° 0 mm 5 mps 733 mmHg 58%
    15:00 +17°C° 0 mm 5 mps 732 mmHg 59%
    16:00 +16°C° 0 mm 5 mps 732 mmHg 63%
    17:00 +15°C° 0 mm 5 mps 732 mmHg 66%
    18:00 +14°C° 0 mm 4 mps 732 mmHg 70%
    19:00 +14°C° 0 mm 5 mps 732 mmHg 69%
    20:00 +14°C° 0 mm 5 mps 732 mmHg 68%
    21:00 +14°C° 0 mm 5 mps 731 mmHg 68%
    22:00 +14°C° 0 mm 5 mps 731 mmHg 68%
    23:00 +14°C° 0 mm 5 mps 731 mmHg 68%

    21 October, Saturday

    Time Temperature Precipitation Wind Pressure Humidity
    00:00 +14°C° 0 mm 5 mps 731 mmHg 68%
    01:00 +14°C° 0 mm 5 mps 731 mmHg 69%
    02:00 +14°C° 0 mm 5 mps 730 mmHg 70%
    03:00 +13°C° 0 mm 5 mps 730 mmHg 71%
    04:00 +13°C° 0 mm 5 mps 730 mmHg 72%
    05:00 +13°C° 0 mm 5 mps 730 mmHg 74%
    06:00 +13°C° 0 mm 5 mps 730 mmHg 75%
    07:00 +13°C° 0.2 mm 5 mps 730 mmHg 75%
    08:00 +14°C° 0.2 mm 6 mps 730 mmHg 75%
    09:00 +14°C° 0.2 mm 6 mps 729 mmHg 74%
    10:00 +14°C° 0.7 mm 5 mps 729 mmHg 75%
    11:00 +14°C° 0.7 mm 5 mps 729 mmHg 77%
    12:00 +14°C° 0.7 mm 5 mps 729 mmHg 78%
    13:00 +15°C° 0.4 mm 5 mps 728 mmHg 79%
    14:00 +15°C° 0.4 mm 5 mps 728 mmHg 80%
    15:00 +15°C° 0.4 mm 5 mps 728 mmHg 81%
    16:00 +14°C° 0.2 mm 5 mps 727 mmHg 83%
    17:00 +14°C° 0.2 mm 5 mps 727 mmHg 84%
    18:00 +14°C° 0.2 mm 5 mps 727 mmHg 86%
    19:00 +14°C° 0.2 mm 5 mps 727 mmHg 87%
    20:00 +14°C° 0.2 mm 6 mps 727 mmHg 88%
    21:00 +14°C° 0.2 mm 6 mps 727 mmHg 88%
    22:00 +14°C° 0 mm 6 mps 727 mmHg 86%
    23:00 +12°C° 0 mm 7 mps 727 mmHg 84%

    22 October, Sunday

    Time Temperature Precipitation Wind Pressure Humidity
    00:00 +11°C° 0 mm 7 mps 728 mmHg 82%
    01:00 +10°C° 0 mm 6 mps 728 mmHg 82%
    02:00 +9°C° 0 mm 5 mps 728 mmHg 81%
    03:00 +8°C° 0 mm 5 mps 729 mmHg 81%
    04:00 +8°C° 0 mm 5 mps 729 mmHg 80%
    05:00 +8°C° 0 mm 5 mps 729 mmHg 79%
    06:00 +8°C° 0 mm 5 mps 729 mmHg 78%
    07:00 +8°C° 0 mm 6 mps 729 mmHg 76%
    08:00 +8°C° 0 mm 6 mps 730 mmHg 73%
    09:00 +8°C° 0 mm 6 mps 730 mmHg 70%
    10:00 +8°C° 0 mm 6 mps 730 mmHg 66%
    11:00 +9°C° 0 mm 5 mps 731 mmHg 62%
    12:00 +10°C° 0 mm 5 mps 731 mmHg 58%
    13:00 +10°C° 0 mm 5 mps 731 mmHg 54%
    14:00 +12°C° 0 mm 5 mps 731 mmHg 50%
    15:00 +13°C° 0 mm 4 mps 731 mmHg 46%
    16:00 +11°C° 0 mm 4 mps 732 mmHg 51%
    17:00 +10°C° 0 mm 3 mps 732 mmHg 57%
    18:00 +9°C° 0 mm 3 mps 732 mmHg 62%
    19:00 +9°C° 0 mm 3 mps 732 mmHg 64%
    20:00 +9°C° 0 mm 3 mps 732 mmHg 66%
    21:00 +9°C° 0 mm 3 mps 732 mmHg 67%
    22:00 +9°C° 0.1 mm 3 mps 731 mmHg 70%
    23:00 +9°C° 0.1 mm 3 mps 731 mmHg 74%
    Show more